GW0861 Weather Reports


Display with metric or nautical units.
time (UTC)temp
F
wind
direction
speed
MPH
gust
MPH
rain 1hr
in
rain 24hr
in
rain mn
in
humidity
%
barometer
mb
20260505194038 63 252 5.0 9.0 0.00 0.12 0.12 84 1007.0
20260505194030 64 262 6.0 10.0 0.00 0.12 0.12 84 1006.9
20260505193018 63 216 5.0 12.0 0.01 0.12 0.12 88 1007.0
20260505192757 62 275 6.0 13.0 0.01 0.12 0.12 88 1007.1
20260505192018 61 258 4.0 13.0 0.04 0.12 0.12 89 1007.1
20260505191517 61 268 6.0 12.0 0.10 0.12 0.12 89 1007.1
20260505191254 60 272 6.0 12.0 0.10 0.12 0.12 89 1007.1
20260505190518 60 296 8.0 13.0 0.11 0.12 0.12 87 1007.2
20260505190018 60 265 7.0 13.0 0.11 0.12 0.12 86 1007.3
20260505185524 60 257 6.0 12.0 0.11 0.01 0.12 85 1007.4
20260505185518 60 274 5.0 11.0 0.11 0.01 0.12 86 1007.3
20260505184520 60 223 6.0 15.0 0.11 0.01 0.12 84 1007.3
20260505184017 61 264 9.0 15.0 0.11 0.01 0.12 83 1007.4
20260505183518 61 265 7.0 16.0 0.11 0.01 0.12 82 1007.4
20260505183018 62 282 7.0 20.0 0.10 0.01 0.11 80 1007.3
20260505182517 63 258 12.0 31.0 0.10 0.01 0.11 77 1007.3
20260505182018 65 230 16.0 31.0 0.07 0.01 0.08 73 1007.0
20260505181756 68 292 14.0 28.0 0.01 0.01 0.02 64 1006.1
20260505181751 67 283 12.0 24.0 0.01 0.01 0.02 67 1006.5
20260505180757 69 268 13.0 28.0 0.00 0.01 0.01 58 1006.1
20260505180016 70 251 16.0 27.0 0.00 0.01 0.01 52 1005.7
20260505175739 71 281 13.0 21.0 0.00 0.01 0.01 49 1005.6
20260505175701 71 264 8.0 15.0 0.00 0.01 0.01 50 1005.5
20260505174743 71 226 9.0 18.0 0.00 0.01 0.01 49 1005.7
20260505174018 72 214 11.0 19.0 0.00 0.01 0.01 48 1005.8
20260505173824 72 244 11.0 21.0 0.00 0.01 0.01 50 1005.8
20260505173018 72 214 9.0 21.0 0.00 0.01 0.01 49 1006.0
20260505172524 72 197 11.0 21.0 0.00 0.01 0.01 50 1006.2
20260505172029 71 276 6.0 20.0 0.00 0.01 0.01 54 1006.1
20260505172023 72 231 5.0 20.0 0.00 0.01 0.01 54 1006.1
20260505171017 70 213 9.0 20.0 0.00 0.01 0.01 53 1006.4
20260505170537 69 251 12.0 19.0 0.00 0.01 0.01 54 1006.7
20260505170529 70 159 9.0 20.0 0.00 0.01 0.01 54 1006.7
20260505165516 69 241 10.0 22.0 0.00 0.01 0.01 55 1006.6
20260505165018 69 217 11.0 22.0 0.00 0.01 0.01 54 1006.7
20260505164750 69 262 10.0 22.0 0.00 0.01 0.01 55 1006.7
20260505164017 69 257 9.0 23.0 0.00 0.01 0.01 55 1006.9
20260505163544 69 248 9.0 20.0 0.00 0.01 0.01 55 1006.9
20260505163537 69 268 14.0 23.0 0.00 0.01 0.01 54 1006.8
20260505162518 69 188 10.0 20.0 0.00 0.01 0.01 56 1006.8
20260505162256 69 189 9.0 20.0 0.00 0.01 0.01 55 1006.6
20260505161517 69 275 10.0 19.0 0.00 0.01 0.01 54 1006.2
20260505161018 69 259 9.0 20.0 0.00 0.01 0.01 55 1006.4
20260505160518 69 212 10.0 21.0 0.00 0.01 0.01 55 1006.4
20260505153017 69 251 15.0 24.0 0.00 0.01 0.01 53 1006.7
20260505153004 69 305 12.0 29.0 0.00 0.01 0.01 54 1006.9
20260505152018 69 275 14.0 29.0 0.00 0.01 0.01 54 1006.9
20260505151517 69 269 13.0 28.0 0.00 0.01 0.01 55 1006.9
20260505151017 69 231 9.0 23.0 0.00 0.01 0.01 56 1006.8
20260505150753 69 221 13.0 23.0 0.00 0.01 0.01 55 1006.8
20260505150234 69 283 15.0 23.0 0.00 0.01 0.01 55 1006.8
20260505140518 68 206 14.0 21.0 0.00 0.01 0.01 58 1006.4
20260505125017 64 261 9.0 18.0 0.00 0.01 0.01 64 1006.6
20260505124518 64 255 9.0 21.0 0.00 0.01 0.01 64 1006.8
20260505124017 64 251 9.0 21.0 0.00 0.01 0.01 66 1006.9
20260505123518 63 195 7.0 17.0 0.00 0.01 0.01 65 1006.9
20260505123017 63 237 9.0 24.0 0.00 0.01 0.01 66 1006.8
20260505122753 63 200 11.0 24.0 0.00 0.01 0.01 65 1006.9
20260505122019 63 326 9.0 20.0 0.00 0.01 0.01 66 1007.1
20260505121517 62 235 8.0 15.0 0.00 0.01 0.01 68 1007.1
20260505121255 62 227 9.0 16.0 0.00 0.01 0.01 68 1007.0
20260505120517 61 258 6.0 17.0 0.00 0.01 0.01 68 1007.3
20260505120018 61 216 8.0 18.0 0.00 0.01 0.01 68 1007.3
20260505115517 61 276 8.0 18.0 0.00 0.01 0.01 69 1007.4
20260505115017 60 192 7.0 19.0 0.00 0.01 0.01 69 1007.1
20260505114517 60 200 9.0 21.0 0.00 0.01 0.01 69 1007.0
20260505114018 60 180 9.0 21.0 0.00 0.01 0.01 69 1007.1
20260505113517 60 235 4.0 15.0 0.00 0.01 0.01 69 1007.1
20260505113018 60 290 9.0 15.0 0.00 0.01 0.01 69 1007.1
20260505112753 60 223 8.0 15.0 0.00 0.01 0.01 70 1007.0
20260505112017 60 231 5.0 12.0 0.00 0.01 0.01 71 1006.8
20260505111519 60 227 7.0 18.0 0.00 0.01 0.01 71 1006.8
20260505111016 60 213 9.0 19.0 0.00 0.01 0.01 71 1006.7
20260505110529 59 195 6.0 19.0 0.00 0.01 0.01 72 1006.5
20260505102004 57 212 6.0 12.0 0.01 0.01 0.01 75 1006.2
20260505101505 57 158 6.0 14.0 0.01 0.01 0.01 76 1006.2
20260505101004 57 193 8.0 14.0 0.01 0.01 0.01 77 1006.4
20260505100505 57 189 5.0 9.0 0.01 0.01 0.01 78 1006.2
20260505100007 57 164 5.0 12.0 0.01 0.00 0.01 77 1006.2
20260505095504 57 190 6.0 12.0 0.01 0.00 0.01 77 1006.4
20260505095007 57 182 5.0 11.0 0.01 0.00 0.01 77 1006.1
20260505094505 58 173 6.0 10.0 0.01 0.00 0.01 76 1006.4
20260505094004 58 220 4.0 11.0 0.01 0.00 0.01 76 1006.2
20260505093505 58 245 5.0 11.0 0.01 0.00 0.01 76 1006.1
20260505093240 58 264 7.0 15.0 0.01 0.00 0.01 76 1006.0
20260505092506 59 278 10.0 20.0 0.00 0.00 0.00 75 1005.9
20260505092006 59 281 9.0 20.0 0.00 0.00 0.00 74 1005.8
20260505091742 59 220 12.0 18.0 0.00 0.00 0.00 73 1005.8
20260505091003 59 227 4.0 15.0 0.00 0.00 0.00 73 1006.4
20260505090505 60 220 9.0 18.0 0.00 0.00 0.00 70 1006.5
20260505090005 60 244 9.0 18.0 0.00 0.00 0.00 68 1006.7
20260505085504 60 251 7.0 15.0 0.00 0.00 0.00 68 1006.7
20260505085008 60 245 5.0 13.0 0.00 0.00 0.00 67 1006.7
20260505084505 60 285 5.0 13.0 0.00 0.00 0.00 67 1006.6
20260505084005 60 237 5.0 10.0 0.00 0.00 0.00 67 1006.5
20260505083504 60 223 4.0 11.0 0.00 0.00 0.00 67 1006.5
20260505083004 60 245 5.0 12.0 0.00 0.00 0.00 67 1006.2
20260505082507 60 245 6.0 12.0 0.00 0.00 0.00 67 1006.1
20260505082004 60 248 5.0 13.0 0.00 0.00 0.00 67 1006.1
20260505081504 60 250 5.0 13.0 0.00 0.00 0.00 66 1006.0
20260505081006 60 240 5.0 17.0 0.00 0.00 0.00 66 1006.0
20260505080503 60 147 8.0 17.0 0.00 0.00 0.00 66 1006.0
20260505080241 60 244 8.0 15.0 0.00 0.00 0.00 66 1005.9
20260505075510 60 224 8.0 15.0 0.00 0.00 0.00 66 1005.9
20260505075504 60 235 6.0 15.0 0.00 0.00 0.00 66 1005.8
20260505074505 60 192 7.0 15.0 0.00 0.00 0.00 67 1005.9
20260505074004 60 175 8.0 15.0 0.00 0.00 0.00 67 1005.8
20260505073506 60 214 8.0 14.0 0.00 0.00 0.00 67 1005.8
20260505073004 60 203 6.0 12.0 0.00 0.00 0.00 66 1005.9
20260505072505 60 221 4.0 12.0 0.00 0.00 0.00 67 1005.9
20260505072013 60 224 6.0 12.0 0.00 0.00 0.00 66 1005.8
20260505071504 60 247 7.0 12.0 0.00 0.00 0.00 66 1005.8
20260505071004 60 188 5.0 17.0 0.00 0.00 0.00 66 1005.8
20260505070741 60 266 3.0 17.0 0.00 0.00 0.00 66 1005.8
20260505070006 60 190 5.0 11.0 0.00 0.00 0.00 66 1005.8
20260505065503 60 195 4.0 10.0 0.00 0.00 0.00 66 1005.8
20260505065017 60 257 3.0 11.0 0.00 0.00 0.00 66 1005.9
20260505064005 60 237 3.0 9.0 0.00 0.00 0.00 65 1005.9
20260505063506 60 182 5.0 9.0 0.00 0.00 0.00 65 1006.1
20260505063004 60 173 3.0 14.0 0.00 0.00 0.00 65 1006.1
20260505062506 60 251 3.0 14.0 0.00 0.00 0.00 65 1006.1
20260505062006 60 179 6.0 12.0 0.00 0.00 0.00 65 1006.1
20260505061504 60 212 5.0 11.0 0.00 0.00 0.00 65 1006.1
20260505061005 60 196 4.0 14.0 0.00 0.00 0.00 65 1006.2
20260505060505 61 200 4.0 14.0 0.00 0.00 0.00 65 1006.1
20260505060004 61 221 5.0 15.0 0.00 0.00 0.00 64 1006.2
20260505055506 61 237 6.0 15.0 0.00 0.00 0.00 64 1006.4
20260505055002 61 189 6.0 15.0 0.00 0.00 0.00 64 1006.2
20260505054506 61 214 7.0 18.0 0.00 0.00 0.00 64 1006.2
20260505054004 61 214 8.0 18.0 0.00 0.00 0.00 64 1006.2
20260505053504 61 227 6.0 17.0 0.00 0.00 0.00 64 1006.4
20260505053004 61 182 7.0 18.0 0.00 0.00 0.00 64 1006.5
20260505052504 61 190 8.0 18.0 0.00 0.00 0.00 64 1006.4
20260505052006 61 172 7.0 14.0 0.00 0.00 0.00 64 1006.5
20260505051504 61 224 8.0 14.0 0.00 0.00 0.00 63 1006.6
20260505051004 61 203 5.0 14.0 0.00 0.00 0.00 63 1006.5
20260505050505 61 223 6.0 14.0 0.00 0.00 0.00 62 1006.6
20260505041506 62 217 7.0 17.0 0.00 0.00 0.00 61 1006.6
20260505041027 62 197 8.0 14.0 0.00 0.00 0.00 61 1006.6
20260505041019 62 176 8.0 17.0 0.00 0.00 0.00 61 1006.6
20260505040006 62 182 7.0 14.0 0.00 0.00 0.00 61 1006.6
20260505035504 62 203 7.0 13.0 0.00 0.00 0.00 61 1006.6
20260505035006 62 223 8.0 13.0 0.00 0.00 0.00 60 1006.6
20260505034523 62 195 6.0 16.0 0.00 0.00 0.00 60 1006.4
20260505034507 62 245 5.0 16.0 0.00 0.00 0.00 60 1006.6
20260505033506 62 203 6.0 16.0 0.00 0.00 0.00 61 1006.5
20260505033104 62 210 6.0 15.0 0.00 0.00 0.00 61 1006.4
20260505033050 62 219 8.0 16.0 0.00 0.00 0.00 61 1006.5
20260505032242 63 268 6.0 22.0 0.00 0.00 0.00 60 1006.5
20260505031801 63 226 6.0 22.0 0.00 0.00 0.00 59 1006.2
20260505031004 63 207 10.0 19.0 0.00 0.00 0.00 58 1006.4
20260505030745 64 199 9.0 20.0 0.00 0.00 0.00 56 1006.5
20260505030011 64 245 7.0 20.0 0.00 0.00 0.00 56 1006.6
20260505025504 64 216 10.0 20.0 0.00 0.00 0.00 55 1006.5
20260505025012 64 200 8.0 23.0 0.00 0.00 0.00 53 1006.4
20260505024504 64 220 6.0 29.0 0.00 0.00 0.00 52 1006.4
20260505024020 64 190 15.0 29.0 0.00 0.00 0.00 52 1006.6
20260505023522 64 231 11.0 20.0 0.00 0.00 0.00 51 1006.5
20260505022742 64 192 8.0 17.0 0.00 0.00 0.00 50 1006.7
20260505022004 64 193 10.0 17.0 0.00 0.00 0.00 49 1006.7
20260505021507 64 227 7.0 15.0 0.00 0.00 0.00 48 1006.8
20260505021004 64 165 8.0 15.0 0.00 0.00 0.00 48 1006.9
20260505020504 64 199 7.0 18.0 0.00 0.00 0.00 48 1006.7
20260505020004 64 213 7.0 18.0 0.00 0.00 0.00 47 1006.8
20260505015743 64 250 6.0 13.0 0.00 0.00 0.00 47 1006.9
20260505015004 64 173 4.0 15.0 0.00 0.00 0.00 46 1006.8
20260505014504 64 226 7.0 15.0 0.00 0.00 0.00 46 1006.8
20260505014005 64 183 6.0 13.0 0.00 0.00 0.00 46 1006.7
20260505013745 65 190 6.0 17.0 0.00 0.00 0.00 45 1006.5
20260505013006 65 204 5.0 17.0 0.00 0.00 0.00 45 1006.6
20260505012504 65 237 4.0 12.0 0.00 0.00 0.00 45 1006.6
20260505012034 65 209 6.0 15.0 0.00 0.00 0.00 44 1006.4
20260505012024 65 199 4.0 15.0 0.00 0.00 0.00 45 1006.6
20260505011004 65 254 5.0 12.0 0.00 0.00 0.00 44 1006.5
20260505010506 65 199 7.0 12.0 0.00 0.00 0.00 44 1006.4
20260505010005 65 206 5.0 13.0 0.00 0.00 0.00 43 1006.4
20260505005505 66 202 5.0 13.0 0.00 0.00 0.00 43 1006.2
20260505005007 66 235 7.0 11.0 0.00 0.00 0.00 42 1006.1
20260505004505 66 148 3.0 15.0 0.00 0.00 0.00 42 1006.1
20260505004003 66 214 8.0 15.0 0.00 0.00 0.00 42 1006.1
20260505003505 66 204 5.0 14.0 0.00 0.00 0.00 42 1006.0
20260505003005 66 224 8.0 14.0 0.00 0.00 0.00 41 1006.1
20260505002504 67 227 6.0 13.0 0.00 0.00 0.00 41 1005.9
20260505002004 67 192 6.0 14.0 0.00 0.00 0.00 40 1005.9
20260505001504 67 230 8.0 16.0 0.00 0.00 0.00 40 1006.0
20260505001004 67 234 8.0 20.0 0.00 0.00 0.00 39 1005.9
20260505000506 67 157 8.0 23.0 0.00 0.00 0.00 39 1005.9
20260505000242 68 244 11.0 23.0 0.00 0.00 0.00 38 1005.8
20260504235506 68 209 6.0 22.0 0.00 0.00 0.00 37 1005.8
20260504235004 68 200 11.0 22.0 0.00 0.00 0.00 36 1005.7
20260504234504 69 275 7.0 17.0 0.00 0.00 0.00 35 1005.7
20260504234007 69 230 6.0 17.0 0.00 0.00 0.00 35 1005.5
20260504233505 69 251 8.0 16.0 0.00 0.00 0.00 33 1005.3
20260504233005 69 212 7.0 20.0 0.00 0.00 0.00 33 1005.4
20260504232741 69 207 5.0 20.0 0.00 0.00 0.00 33 1005.3
20260504232004 70 247 6.0 18.0 0.00 0.00 0.00 33 1005.5
20260504231502 70 268 9.0 18.0 0.00 0.00 0.00 34 1005.3
20260504231004 70 224 10.0 18.0 0.00 0.00 0.00 32 1005.4
20260504230504 70 210 8.0 19.0 0.00 0.00 0.00 32 1005.4
20260504230006 70 162 6.0 19.0 0.00 0.00 0.00 32 1005.4
20260504225503 70 226 8.0 19.0 0.00 0.00 0.00 30 1005.4
20260504225006 71 240 8.0 19.0 0.00 0.00 0.00 32 1005.2
20260504224504 71 264 9.0 21.0 0.00 0.00 0.00 30 1005.3
20260504224207 71 251 12.0 20.0 0.00 0.00 0.00 31 1005.2
20260504224142 71 250 8.0 21.0 0.00 0.00 0.00 30 1005.3
20260504223239 71 266 11.0 18.0 0.00 0.00 0.00 31 1005.1
20260504222503 72 214 10.0 18.0 0.00 0.00 0.00 29 1005.3
20260504222004 72 272 7.0 16.0 0.00 0.00 0.00 31 1005.2
20260504221743 72 274 8.0 18.0 0.00 0.00 0.00 31 1005.1
20260504221006 71 217 11.0 18.0 0.00 0.00 0.00 31 1005.1
20260504220504 71 224 7.0 18.0 0.00 0.00 0.00 32 1005.1
20260504220242 71 197 8.0 18.0 0.00 0.00 0.00 33 1005.2
20260504215505 71 235 10.0 18.0 0.00 0.00 0.00 32 1005.3
20260504215241 71 196 9.0 21.0 0.00 0.00 0.00 31 1005.2
20260504214506 71 197 11.0 24.0 0.00 0.00 0.00 31 1005.3
20260504214001 72 159 12.0 24.0 0.00 0.00 0.00 32 1005.3
20260504213502 73 227 9.0 21.0 0.00 0.00 0.00 30 1005.2
20260504213001 73 241 7.0 16.0 0.00 0.00 0.00 34 1005.2
20260504212738 73 234 10.0 16.0 0.00 0.00 0.00 32 1005.2
20260504212242 73 216 8.0 12.0 0.00 0.00 0.00 32 1005.1
20260504211501 73 213 5.0 17.0 0.00 0.00 0.00 32 1005.0
20260504211001 73 169 9.0 17.0 0.00 0.00 0.00 34 1005.2
20260504210504 73 248 6.0 15.0 0.00 0.00 0.00 32 1005.1
20260504210001 73 221 5.0 15.0 0.00 0.00 0.00 30 1005.2
20260504205501 73 244 7.0 17.0 0.00 0.00 0.00 30 1005.2
20260504205001 73 233 6.0 17.0 0.00 0.00 0.00 32 1005.3
20260504204502 73 259 8.0 16.0 0.00 0.00 0.00 30 1005.2
20260504204242 73 237 9.0 16.0 0.00 0.00 0.00 32 1005.3
20260504203504 73 286 8.0 15.0 0.00 0.00 0.00 33 1005.4
20260504203005 73 202 9.0 15.0 0.00 0.00 0.00 34 1005.4
20260504202503 73 247 7.0 13.0 0.00 0.00 0.00 31 1005.5
20260504202223 73 231 9.0 17.0 0.00 0.00 0.00 34 1005.6
20260504201001 72 230 9.0 20.0 0.00 0.00 0.00 32 1005.8
20260504200502 72 250 9.0 26.0 0.00 0.00 0.00 34 1005.8
20260504200005 72 245 12.0 26.0 0.00 0.00 0.00 32 1005.9
20260504195502 72 255 8.0 17.0 0.00 0.00 0.00 35 1005.9
20260504195002 72 241 8.0 16.0 0.00 0.00 0.00 36 1006.0
20260504194501 71 235 8.0 22.0 0.00 0.00 0.00 35 1006.2